This is the latest recevied weather packets stored in our database for station/object KR4KUV. If no packets are shown the sender has not sent any weather packets the latest 10 day(s).
| Time | Temp. | Humidity | Pressure | Rain* | Wind** | Luminosity | Snow |
|---|---|---|---|---|---|---|---|
| 1788101380 | 25.56° C | 84% | 1025.4 hPa | 0 mm | - | 197 W/m² | - |
| 1788101076 | 25.56° C | 84% | 1025.4 hPa | 0 mm | - | 175 W/m² | - |
| 1788100771 | 25.56° C | 86% | 1025.4 hPa | 0 mm | - | 220 W/m² | - |
| 1788100467 | 25° C | 86% | 1025.2 hPa | 0 mm | - | 253 W/m² | - |
| 1788100165 | 25° C | 87% | 1025.3 hPa | 0 mm | - | 178 W/m² | - |
| 1788099861 | 25° C | 87% | 1025.1 hPa | 0 mm | - | 169 W/m² | - |
| 1788099560 | 24.44° C | 88% | 1025.2 hPa | 0 mm | - | 162 W/m² | - |
| 1788099256 | 24.44° C | 88% | 1025.2 hPa | 0 mm | - | 152 W/m² | - |
| 1788098951 | 24.44° C | 88% | 1025.2 hPa | 0 mm | - | 133 W/m² | - |
| 1788098646 | 24.44° C | 89% | 1025.3 hPa | 0 mm | - | 121 W/m² | - |
| 1788098345 | 24.44° C | 90% | 1025.3 hPa | 0 mm | - | 140 W/m² | - |
| 1788098041 | 24.44° C | 90% | 1025.4 hPa | 0 mm | - | 153 W/m² | - |
| 1788097736 | 24.44° C | 91% | 1025.4 hPa | 0 mm | - | 147 W/m² | - |
| 1788097432 | 23.89° C | 91% | 1025.3 hPa | 0 mm | - | 123 W/m² | - |
| 1788097127 | 23.89° C | 91% | 1025.4 hPa | 0 mm | - | 143 W/m² | - |
| 1788096823 | 24.44° C | 91% | 1025.4 hPa | 0 mm | - | 117 W/m² | - |
| 1788096518 | 23.89° C | 92% | 1025.3 hPa | 0 mm | - | 129 W/m² | - |
| 1788096214 | 23.89° C | 93% | 1025.3 hPa | 0 mm | - | 135 W/m² | - |
| 1788095912 | 23.89° C | 93% | 1025.4 hPa | 0 mm | - | 128 W/m² | - |
| 1788095607 | 23.89° C | 94% | 1025.3 hPa | 0 mm | - | 110 W/m² | - |
| 1788095302 | 23.33° C | 95% | 1025.1 hPa | 0 mm | - | 107 W/m² | - |
| 1788094998 | 23.33° C | 97% | 1025.3 hPa | 0 mm | - | 113 W/m² | - |
| 1788094697 | 22.78° C | 98% | 1025.2 hPa | 0 mm | - | 80 W/m² | - |
| 1788094393 | 22.78° C | 98% | 1025.3 hPa | 0 mm | - | 56 W/m² | - |
| 1788094089 | 22.78° C | 99% | 1025.4 hPa | 0 mm | - | 46 W/m² | - |
* Rain latest hour (hover to see other rain measurements)
** Current wind speed in m/s (hover to see current wind gust speed)